Theta_e
311 312 313 310 309 309 308 309 305 309 311 315 321 321 324 327 329 330 333 336 338 340 343 345 351 353 355 354 359 357 351 357 360 358 364 360 361 364 361 362 362 361 361 360
308 311 311 308 309 309 308 308 308 310 311 322 323 329 329 327 328 329 331 334 338 341 345 344 345 350 353 350 354 346 347 336 354 350 356 359 360 363 362 361 360 362 360 360
304 310 307 305 308 308 309 310 310 307 316 323 322 321 324 332 329 330 332 333 336 340 343 346 344 346 346 349 351 353 347 348 354 357 356 357 359 362 361 359 359 360 359 359
305 308 299 310 315 313 311 311 312 312 314 319 323 326 327 330 330 331 334 334 338 340 344 343 346 346 350 349 353 351 349 349 357 359 360 360 360 361 362 362 360 360 359 359
304 303 308 310 313 311 310 309 314 313 315 320 323 326 326 329 332 333 334 335 338 341 343 346 345 346 353 352 353 352 349 347 349 353 356 359 358 359 361 359 359 360 361 360
308 302 299 310 314 317 316 305 317 318 318 319 323 315 320 329 330 331 333 333 332 336 339 343 346 347 348 350 350 349 350 353 354 357 357 355 357 359 360 359 357 356 358 360
305 304 307 315 317 318 305 309 319 319 320 324 322 325 330 329 329 330 330 331 334 333 335 341 342 344 346 347 346 349 352 354 355 358 355 356 358 360 360 359 357 356 355 357
307 305 302 318 316 310 321 322 320 320 322 327 329 328 327 327 327 327 326 327 329 336 338 341 343 347 345 346 349 350 350 351 353 355 353 353 354 356 357 357 355 354 354 354
310 309 325 320 320 322 321 322 320 322 323 330 326 325 324 325 325 324 326 329 330 334 338 341 346 348 344 349 347 347 348 349 350 349 347 346 345 346 348 347 346 342 346 348
314 319 319 320 322 323 322 322 323 322 323 325 325 324 324 325 325 327 328 329 330 333 334 340 346 342 348 344 345 343 347 348 347 342 339 336 331 327 332 338 342 340 338 335
313 318 321 320 321 321 322 323 323 324 324 325 325 323 325 326 328 328 331 331 334 335 336 338 344 344 343 342 347 341 343 346 341 339 337 328 314 310 315 321 313 327 338 335
308 319 323 316 323 322 322 323 323 323 324 327 325 326 328 328 330 330 332 333 334 337 337 340 339 340 340 343 345 341 343 341 336 334 333 330 325 317 303 301 300 299 304 316
318 326 327 326 326 323 324 324 324 324 326 326 326 326 329 331 334 328 332 332 334 335 334 338 340 337 341 344 341 338 339 337 332 329 328 325 323 320 315 309 302 298 299 301
324 325 322 322 321 324 323 325 324 326 326 330 330 330 329 328 330 330 330 332 334 335 335 335 337 336 340 339 337 334 332 320 329 328 327 324 322 319 317 314 310 309 302 302
323 324 323 325 324 323 325 325 324 324 325 328 333 332 328 326 328 330 334 333 333 334 334 334 334 337 339 336 333 332 329 329 330 328 328 323 322 320 317 315 313 312 312 307
321 322 322 322 323 324 325 324 324 324 328 329 330 330 330 330 331 332 334 333 331 329 330 330 329 335 339 335 332 330 329 325 326 329 327 326 322 320 319 318 317 316 315 314
318 318 321 321 322 323 323 325 327 329 329 330 332 333 332 330 331 332 332 332 331 330 330 329 328 332 335 336 333 331 331 330 327 329 333 330 325 322 323 322 320 318 316 315
322 324 324 323 323 323 325 326 328 329 329 332 334 334 333 333 332 334 332 332 331 330 330 330 329 329 332 334 331 329 329 329 330 331 329 330 330 326 324 324 324 322 320 318
323 324 325 325 325 326 325 327 323 327 332 335 335 334 335 335 335 333 332 330 329 330 329 329 323 325 328 331 328 327 327 325 324 327 325 321 324 322 319 318 320 321 321 321
321 324 325 328 326 327 327 329 330 330 327 329 335 335 335 335 335 332 334 329 329 328 328 324 324 320 321 327 326 324 323 322 323 321 320 320 320 320 319 313 319 319 319 320
321 322 323 324 326 326 327 330 327 328 328 328 336 336 337 337 334 334 330 325 328 327 326 322 322 321 321 319 320 320 318 318 319 319 317 316 318 317 318 319 320 322 322 321
321 321 322 324 326 327 327 329 333 335 334 334 336 338 337 336 335 332 334 328 326 317 323 322 321 320 320 320 318 318 317 317 316 317 318 319 319 317 317 318 319 320 322 322
323 323 324 324 326 330 330 328 330 334 336 337 336 338 336 332 330 327 322 325 325 319 323 321 318 317 317 324 321 321 320 320 320 318 319 320 318 320 319 320 320 320 322 325
330 330 326 326 328 329 331 333 330 335 338 339 338 340 337 331 332 332 328 318 315 316 321 321 317 315 314 321 323 324 323 323 323 322 323 311 322 322 323 323 323 324 321 320
328 329 331 329 330 325 333 335 332 333 336 337 338 339 339 335 330 329 328 325 313 317 323 315 315 314 321 322 323 326 321 321 321 321 320 321 322 323 322 323 322 322 320 321
327 322 323 328 320 320 324 329 326 327 327 330 332 334 334 335 331 326 328 322 323 318 322 322 322 320 321 323 327 326 327 326 319 318 321 320 322 324 324 322 319 320 320 317
324 311 321 322 323 324 324 324 327 327 325 326 328 332 333 331 327 327 321 324 324 324 325 325 323 320 322 323 325 327 326 327 319 326 327 326 325 323 322 320 320 321 318 317
Wind_Speed
9 16 17 7 9 6 8 10 11 5 10 1 5 9 12 10 13 12 10 8 6 8 6 2 4 4 2 8 2 1 6 9 6 2 10 12 9 7 9 9 8 9 9 10
15 10 19 15 7 7 8 12 10 10 7 16 13 11 11 10 12 10 10 10 7 6 7 4 3 5 4 4 2 6 9 9 6 10 13 10 8 7 8 9 11 9 10 10
15 14 20 26 11 10 10 9 6 7 12 14 8 5 6 9 7 9 10 8 10 9 6 5 4 4 6 6 4 2 6 8 17 9 10 11 9 9 10 12 12 12 12 12
13 12 9 15 6 2 8 4 3 6 2 8 10 9 6 7 6 8 9 7 6 6 8 7 9 8 5 5 5 6 2 3 4 5 8 8 9 9 10 10 11 11 12 13
13 12 11 18 11 6 8 8 8 8 8 8 9 9 8 5 9 7 9 6 4 5 5 7 6 2 5 5 6 7 5 5 5 5 6 6 8 10 10 10 11 11 12 13
9 11 15 9 16 12 9 6 8 8 3 6 7 6 6 10 8 8 9 6 4 4 5 5 4 3 3 5 6 5 7 6 5 4 5 6 7 8 9 9 10 9 11 13
10 11 11 7 14 5 6 4 4 9 8 10 8 8 12 11 7 7 5 4 4 3 4 3 1 2 4 3 5 8 8 8 7 5 5 6 7 5 6 7 9 10 10 11
8 18 12 7 9 11 7 6 4 2 6 16 13 13 12 10 7 4 1 3 3 5 6 6 2 1 3 5 2 5 9 8 6 6 4 3 4 5 5 5 7 8 10 10
14 9 10 12 5 11 6 5 5 5 7 16 13 8 10 8 7 4 2 4 4 5 6 2 4 2 4 2 4 6 10 6 5 3 3 3 3 4 3 2 3 3 5 7
12 12 11 10 4 10 10 8 9 5 5 9 7 12 8 7 6 5 3 4 4 6 7 6 2 5 5 2 5 7 9 6 3 4 4 3 2 2 2 3 4 3 2 2
18 20 9 19 21 9 11 10 10 11 7 9 8 5 8 8 6 3 4 4 5 5 5 7 5 3 5 4 6 6 7 4 5 4 5 5 5 5 3 1 2 4 3 3
6 22 8 5 12 9 9 12 7 7 10 8 6 7 8 6 6 4 5 5 6 5 6 5 4 3 3 5 5 7 5 3 4 4 5 3 4 4 10 5 8 7 5 6
2 17 13 18 26 11 12 11 10 7 9 10 7 7 9 6 7 2 4 5 4 6 6 7 6 4 5 4 3 5 5 3 4 3 3 4 3 3 2 4 15 16 9 9
7 12 7 8 7 9 6 11 8 8 10 10 10 6 8 7 8 2 1 2 3 5 4 6 8 6 4 1 4 3 3 5 3 4 5 6 5 5 5 4 6 6 13 10
12 7 4 8 5 7 10 10 12 9 11 12 12 8 7 6 5 3 3 2 4 5 4 7 8 6 1 2 4 4 4 3 3 5 6 8 8 8 7 7 8 8 8 10
14 15 5 2 4 6 9 9 12 11 10 12 11 9 8 5 4 4 3 4 4 6 7 7 7 8 1 4 4 5 4 4 6 8 10 10 8 8 7 6 7 7 7 7
14 13 11 6 7 10 11 11 10 9 12 12 13 11 8 7 5 5 4 5 4 3 5 5 5 6 7 4 4 4 3 3 5 7 8 10 11 10 9 9 8 7 6 7
20 14 11 12 9 9 9 8 9 11 13 13 13 11 9 7 5 6 5 6 6 4 2 3 6 7 5 3 3 4 4 2 4 4 2 7 8 7 11 10 11 10 9 9
16 12 13 12 9 8 8 6 10 23 8 14 13 9 8 7 5 7 7 3 2 2 2 7 7 7 7 5 6 4 5 6 5 6 5 5 5 4 4 3 7 9 9 9
16 13 9 5 6 4 3 13 17 10 8 18 8 8 8 7 7 5 9 6 6 4 7 7 8 8 7 3 7 4 7 7 9 10 8 5 4 2 5 9 9 9 7 8
16 13 6 3 6 3 8 14 11 8 12 7 7 9 8 8 7 7 6 5 8 6 8 9 8 5 7 8 8 8 8 6 8 8 8 4 7 6 3 7 7 6 5 5
12 12 11 9 7 6 3 1 8 15 16 14 9 9 9 9 7 5 5 9 9 8 7 7 5 6 6 12 8 7 7 5 5 2 3 5 4 3 4 5 5 4 4 4
5 9 11 13 12 9 9 7 7 9 9 9 9 9 9 9 8 9 9 10 11 10 10 8 10 8 8 7 8 4 2 4 3 5 5 4 4 6 3 5 6 7 6 4
5 5 2 5 6 7 9 8 8 8 9 9 9 10 10 7 7 6 14 15 16 16 12 8 10 14 9 4 6 6 8 6 4 6 2 5 2 2 4 4 5 6 5 5
5 4 4 2 4 3 9 10 9 9 9 8 8 8 11 9 7 10 13 14 19 15 10 11 11 11 7 5 6 6 7 6 6 6 8 7 5 5 5 4 4 5 5 2
7 4 4 9 13 3 12 8 8 7 8 11 11 10 11 9 5 8 13 17 15 13 12 10 9 9 9 9 10 8 5 5 6 6 7 6 7 6 5 6 5 4 3 4
4 5 4 5 5 5 4 5 5 3 5 7 14 5 9 10 9 9 16 15 13 12 11 12 11 10 10 8 9 9 8 6 5 3 4 4 4 5 5 6 4 3 4 4
Wind_Direction
185 198 262 278 195 204 235 289 304 95 124 182 131 147 154 143 136 137 140 147 171 126 133 223 287 73 260 228 279 277 149 221 153 199 193 206 209 204 192 210 218 216 225 220
272 81 316 238 249 264 262 278 272 284 129 162 146 132 151 160 148 152 165 144 135 112 137 179 227 282 246 260 11 56 20 342 233 179 242 218 210 212 204 211 211 217 221 227
250 185 188 256 225 243 256 257 267 269 113 124 142 150 156 139 170 161 164 148 149 153 155 153 198 227 260 285 326 114 171 161 249 169 215 223 217 219 215 218 218 217 217 220
251 251 229 266 236 126 4 338 279 274 234 164 148 122 129 144 176 158 133 146 124 140 127 189 176 181 212 267 280 280 236 216 312 305 261 242 230 232 232 228 221 221 222 224
245 246 248 264 173 187 203 238 252 258 273 113 118 124 137 171 151 143 130 120 149 87 61 36 10 83 177 212 234 235 239 264 254 231 254 262 251 245 231 229 232 230 230 224
239 220 257 254 17 201 147 231 234 236 177 147 120 194 170 127 133 134 136 150 157 149 155 179 193 235 258 280 295 300 328 303 299 319 287 270 263 256 251 242 238 235 236 234
258 225 244 184 154 162 197 81 43 164 152 131 103 89 103 114 121 121 142 176 181 186 262 273 256 247 249 229 287 305 300 287 263 278 284 282 278 271 257 244 245 247 244 240
227 249 220 130 124 169 113 135 90 74 153 108 118 131 139 157 142 130 72 333 256 237 213 248 299 306 276 292 180 289 282 298 268 263 252 255 315 306 282 268 257 253 251 249
246 239 178 214 210 157 150 144 132 148 151 139 147 158 152 139 104 93 75 37 342 316 323 318 267 208 263 306 343 289 278 289 278 198 140 83 347 330 290 259 261 298 289 266
295 246 92 1 207 178 158 178 151 167 170 147 149 161 173 133 112 71 39 16 340 323 308 310 305 87 86 350 303 299 287 280 223 167 139 126 95 46 319 311 296 248 242 52
266 276 162 180 226 185 173 145 160 169 165 149 159 152 131 105 95 74 39 354 333 307 297 306 327 23 32 333 305 297 293 273 151 163 205 116 65 23 330 343 331 318 306 127
249 279 165 144 315 179 167 152 166 152 139 126 162 141 125 114 90 58 30 334 313 308 305 305 294 317 306 289 284 295 283 177 179 187 175 146 139 122 55 33 9 331 271 110
248 324 152 153 190 185 176 170 170 184 150 152 138 135 113 101 88 93 260 332 7 330 298 294 326 314 282 251 275 270 280 186 171 172 120 119 109 103 95 59 56 37 43 102
295 240 190 113 130 145 171 168 143 177 159 142 132 115 134 151 142 187 330 350 345 320 342 343 328 295 274 228 241 229 193 179 164 143 129 124 117 98 83 75 77 60 36 75
308 334 349 144 180 195 193 175 159 187 169 145 131 155 172 168 159 130 94 354 282 295 21 344 320 328 109 201 224 187 185 186 163 127 144 116 115 104 94 95 97 98 97 74
315 312 255 199 184 212 171 183 182 184 162 145 147 172 168 149 145 134 113 61 16 351 332 326 320 342 242 175 184 183 193 226 165 157 143 131 122 116 110 106 105 107 108 104
274 275 285 226 197 238 225 200 194 186 162 162 163 161 159 173 148 170 145 97 106 347 356 6 349 323 325 173 221 189 180 167 174 166 158 145 142 147 142 138 128 131 137 159
246 254 246 264 250 217 226 208 193 197 170 178 149 146 162 166 202 118 95 135 140 183 99 35 1 342 309 186 160 133 132 153 143 162 125 140 150 156 152 158 152 156 161 181
236 227 240 242 247 246 243 87 34 344 136 142 134 153 169 166 151 142 155 170 242 215 61 70 47 16 330 169 144 134 132 114 99 101 100 89 81 79 81 128 167 149 158 173
236 244 227 214 230 240 106 116 139 171 68 332 139 169 172 149 139 145 112 101 75 57 88 87 65 39 16 116 128 115 126 129 122 110 89 60 49 321 245 215 133 162 182 186
208 226 214 162 216 229 126 180 147 135 117 304 196 174 166 139 148 143 156 132 117 123 110 94 85 60 55 51 67 86 71 74 120 122 131 162 194 240 76 112 120 87 63 59
198 207 204 209 203 183 224 232 140 153 167 182 184 172 158 141 155 156 75 115 126 159 135 120 111 109 100 93 77 61 76 77 75 1 237 147 128 194 152 130 131 141 146 139
150 195 208 214 220 201 191 238 177 160 167 176 180 167 170 168 176 151 138 133 140 152 139 147 150 177 173 120 112 103 100 131 196 222 233 186 167 229 226 184 183 173 171 154
59 52 162 228 264 197 187 198 198 175 184 177 180 175 166 179 185 209 139 151 146 159 155 166 191 206 209 190 192 171 185 182 196 270 188 289 356 186 111 92 92 84 73 89
74 30 16 32 328 313 222 189 201 177 179 191 180 181 174 206 206 153 155 156 158 173 175 187 189 204 218 226 228 205 183 200 215 224 222 210 173 128 129 126 121 118 121 172
347 52 66 101 117 290 296 320 225 214 201 194 187 195 188 195 216 150 155 148 165 179 173 169 186 199 208 215 227 204 212 192 170 199 189 180 202 152 138 123 111 115 116 129
210 304 30 287 153 159 98 173 286 310 93 359 323 173 185 195 146 220 139 154 165 185 191 167 190 197 222 224 208 182 186 215 207 196 187 146 127 125 127 116 128 162 161 143